This demonstration page uses our WeatherBlox Daily Observations layout. Learn more.

Left ArrowRight Arrow

44.31136, -96.79839

Hourly Observations for June 4, 2019

Temp ( °F °C ) Dew Point ( °F °C ) Humidity (%) Winds ( mph kmh ) Pressure ( in mb ) Visibility ( mi km ) Precip ( " mm )
12:56 am 00:56 Clear 64 17.8 61 16.1 90 90 S 12 19 29.87 1012 10 16 0.00 0.00
2:56 am 02:56 Clear 62 16.7 59 15 90 90 SSE 7 11 29.81 1010 10 16 0.00 0.00
3:56 am 03:56 Clear 61 16.1 59 15 93 93 SSE 7 11 29.81 1010 10 16 0.00 0.00
4:56 am 04:56 Clear 60 15.6 58 14.4 93 93 SSE 7 11 29.79 1009 10 16 0.00 0.00
5:56 am 05:56 Sunny 60 15.6 58 14.4 93 93 SSE 9 15 29.78 1009 10 16 0.00 0.00
6:56 am 06:56 Sunny 61 16.1 58 14.4 90 90 SE 7 11 29.78 1008 10 16 0.00 0.00
7:56 am 07:56 Sunny 64 17.8 60 15.6 87 87 SSE 13 20 29.77 1008 10 16 0.00 0.00
8:56 am 08:56 Sunny 67 19.4 62 16.7 84 84 SSE 10 17 29.78 1008 10 16 0.00 0.00
9:56 am 09:56 Sunny 71 21.7 64 17.8 79 79 S 9 15 29.77 1008 10 16 0.00 0.00
10:56 am 10:56 Sunny 75 23.9 66 18.9 74 74 SSW 13 20 29.75 1008 10 16 0.00 0.00
11:56 am 11:56 Sunny 78 25.6 68 20 71 71 S 9 15 29.73 1007 10 16 0.00 0.00
12:56 pm 12:56 Sunny 82 27.8 70 21.1 67 67 S 10 17 29.73 1007 10 16 0.00 0.00
1:56 pm 13:56 Sunny 84 28.9 70 21.1 63 63 SW 9 15 29.70 1006 10 16 0.00 0.00
2:56 pm 14:56 Sunny 86 30 70 21.1 59 59 SSW 14 22 29.69 1005 10 16 0.00 0.00
3:56 pm 15:56 Sunny 86 30 66 18.9 51 51 WSW 13 20 29.67 1005 10 16 0.00 0.00
4:56 pm 16:56 Sunny 88 31.1 64 17.8 45 45 WSW 12 19 N/A 10 16 0.00 0.00
5:56 pm 17:56 Sunny 86 30 64 17.8 48 48 W 13 20 29.67 1005 10 16 0.00 0.00
6:56 pm 18:56 Sunny 82 27.8 66 18.9 58 58 W 9 15 29.67 1005 10 16 0.00 0.00
7:56 pm 19:56 Sunny 79 26.1 61 16.1 54 54 NNW 13 20 29.70 1006 10 16 0.00 0.00
8:56 pm 20:56 Sunny 73 22.8 59 15 62 62 E 8 13 29.74 1007 10 16 0.00 0.00
9:56 pm 21:56 Clear 70 21.1 58 14.4 66 66 ESE 9 15 29.75 1007 10 16 0.00 0.00
10:56 pm 22:56 Clear 66 18.9 60 15.6 81 81 SE 6 9 29.75 1008 10 16 0.00 0.00
11:56 pm 23:56 Clear 65 18.3 60 15.6 84 84 Calm 29.74 1007 10 16 0.00 0.00

Powered by AerisWeather